User: anonymous   Login
Location: Unspecified
(0.0000°N, 0.0000°E)
Time: 05:00:28
(UTC+01:00)
Language:

Landsat 4 - Orbit

View from above orbital plane
View from above orbital plane
View from above satellite
View from above satellite

Ground track
Ground track

The orbit data is extracted from the following two-line orbital elements,

1 13367U 82072A   15056.85035700  .00003502  00000-0  20552-3 0  9991
2 13367 098.1824 143.0404 0014544 178.6542 297.7984 15.12408013757528
Epoch (UTC): 25 February 2015 20:24:30
Eccentricity: 0.0014544
inclination: 98.1824°
perigee height: 519 km
apogee height: 539 km
right ascension of ascending node: 143.0404°
argument of perigee: 178.6542°
revolutions per day: 15.12408013
mean anomaly at epoch: 297.7984°
orbit number at epoch: 75752

The dashed part of the orbit path shows where the satellite is in the earth's shadow,  

DLR